GFSMA_sfc_temp_000.txt.gz
Temp
72 74 72 74 73 73 72 72 71 72 73 74 75 74 75 74 74 77 75 80 80 81 82 83 83 82 82 81 81 81 81 81 81 81 81 81 80 80 80 80 80 80 80
73 73 72 72 72 72 72 72 71 71 71 72 73 75 76 76 74 76 76 75 81 81 81 83 83 82 82 82 82 81 81 81 81 80 80 80 80 80 80 80 80 80 79
74 73 71 70 71 72 72 71 71 71 70 72 71 73 74 74 74 73 76 74 76 81 81 82 82 82 82 82 82 82 81 81 81 80 80 80 80 80 79 79 79 79 79
74 72 70 70 71 71 71 69 68 68 68 68 68 69 70 72 74 75 76 76 74 78 80 82 81 81 82 82 82 82 81 80 80 80 80 80 80 79 79 79 79 79 78
74 72 70 71 71 69 69 69 68 68 67 67 69 69 69 69 71 77 75 75 76 76 76 80 81 81 82 83 83 82 81 80 80 80 80 79 79 79 79 78 78 78 78
75 74 71 71 71 70 69 69 68 68 67 67 71 71 69 69 69 69 72 76 75 76 77 76 75 79 80 82 82 82 82 81 80 80 80 79 79 79 78 78 78 78 78
74 73 72 71 71 69 69 69 68 67 66 67 65 65 65 67 67 68 70 71 73 76 73 77 73 74 78 80 80 81 82 81 81 80 79 79 78 78 78 77 77 77 77
74 74 72 71 70 69 69 68 67 66 66 67 65 62 59 63 66 70 69 71 70 72 75 74 72 74 74 72 76 80 81 81 81 81 80 79 78 78 78 77 76 77 77
74 72 71 69 69 68 67 67 67 67 64 66 66 63 59 57 61 65 68 69 68 68 69 70 71 72 72 73 76 78 80 79 81 82 81 80 78 78 78 77 77 76 76
72 72 72 71 69 67 67 67 69 67 66 63 65 66 64 63 59 58 63 66 67 69 67 68 70 71 71 69 74 76 77 77 79 81 81 81 80 78 78 78 77 76 76
70 72 71 70 68 67 67 68 67 67 66 65 63 63 62 62 61 59 57 61 65 64 66 67 68 69 71 69 68 71 75 76 78 79 80 80 80 80 80 79 78 78 77
67 70 71 69 68 67 67 67 67 67 66 65 64 63 62 60 59 59 57 58 59 62 64 65 66 67 70 69 73 75 75 74 73 74 76 78 80 80 81 81 80 80 79
65 67 68 67 67 67 68 67 67 66 66 65 64 62 62 61 61 60 59 58 57 60 61 64 65 66 70 70 71 75 76 74 72 71 71 72 74 78 80 80 80 80 80
66 67 67 68 69 69 68 67 66 67 66 65 65 63 63 62 61 60 59 56 54 55 57 59 62 62 65 66 70 75 73 72 70 70 69 70 70 72 76 78 78 79 79
68 68 69 69 68 68 68 67 66 66 67 65 65 64 63 62 60 60 58 58 55 50 51 55 56 62 66 65 67 69 71 72 70 70 68 68 69 70 72 74 74 75 75
67 68 68 68 68 68 67 67 65 66 65 64 64 64 63 61 60 60 58 57 56 54 51 55 58 62 65 66 68 69 71 72 71 69 68 68 68 69 70 71 72 72 73
67 67 67 67 67 67 67 66 65 66 65 64 63 63 64 62 60 59 58 57 56 55 54 56 57 62 61 62 65 64 67 69 70 69 68 68 67 67 68 69 70 71 72
67 67 67 66 66 67 66 65 65 66 65 64 63 62 63 65 60 59 58 57 56 56 56 54 57 58 60 62 62 62 66 71 70 71 68 67 67 66 67 67 67 68 68
67 67 67 66 66 67 66 66 65 66 65 64 64 62 62 61 60 58 58 57 57 58 56 56 57 59 59 61 62 62 62 64 69 71 67 66 67 66 65 64 64 64 63
66 66 66 67 66 67 67 66 66 64 64 64 64 63 62 61 61 59 58 58 57 56 55 56 56 57 58 62 61 58 58 61 63 69 72 70 69 68 67 63 64 64 62
67 66 66 66 66 67 70 66 65 65 63 63 63 63 62 63 65 62 59 59 57 56 57 57 57 56 58 59 59 62 58 60 62 64 66 69 69 69 70 65 67 66 63
66 66 66 66 66 69 67 66 67 63 63 62 60 61 61 65 64 65 64 64 62 56 56 56 56 55 57 58 61 58 57 56 56 67 65 68 69 67 70 71 70 67 63
65 65 66 65 66 66 65 64 66 62 61 60 59 58 60 62 63 61 62 63 62 62 62 57 56 56 56 59 59 57 57 56 58 65 62 63 68 68 73 72 66 64 63
65 66 65 65 65 66 63 62 63 62 60 59 59 59 58 59 59 59 58 56 56 56 57 59 58 60 60 62 59 58 57 57 59 61 62 60 67 69 72 72 66 64 62
64 63 65 65 62 63 61 60 60 59 58 58 57 58 58 58 59 58 56 54 54 55 60 60 60 59 60 60 60 58 57 56 55 58 62 62 65 66 67 71 69 64 61
63 65 64 63 61 62 59 58 58 57 56 55 56 57 58 57 55 54 53 52 54 56 55 56 58 59 60 60 61 59 57 56 56 57 65 63 65 66 62 66 68 65 64

GFSMA_sfc_temp_003.txt.gz
Temp
70 72 72 71 71 71 71 71 70 71 71 72 72 73 73 72 73 75 73 80 80 81 82 83 83 82 82 81 81 81 81 81 81 81 81 80 80 80 80 80 80 80 79
71 72 71 71 71 71 71 71 70 70 69 70 71 72 72 73 73 73 75 74 81 82 82 82 82 82 83 82 82 81 82 81 81 81 80 80 80 80 80 80 80 80 79
72 72 70 69 70 70 70 70 69 68 68 70 69 70 71 71 71 73 73 73 75 81 82 82 82 81 82 83 82 82 81 81 80 80 80 80 80 79 79 79 79 79 79
73 71 69 69 70 69 69 68 67 67 67 67 66 67 68 69 70 72 73 73 73 76 79 82 81 81 82 82 83 82 81 80 80 80 80 79 79 79 79 79 79 79 78
73 71 68 69 69 69 68 68 67 66 66 66 67 67 67 67 69 73 71 72 73 74 74 78 80 80 82 83 83 82 81 80 80 80 80 79 79 79 79 79 78 78 78
73 71 71 70 70 68 67 67 66 66 66 66 68 69 67 67 67 67 68 72 71 73 74 75 73 77 80 82 82 81 82 81 80 80 79 79 79 79 78 78 78 78 78
73 71 70 70 69 68 68 68 66 66 65 66 64 64 64 65 66 67 68 68 70 72 72 72 72 72 74 79 80 81 81 82 80 80 79 79 79 78 78 77 77 77 77
73 72 71 70 70 68 67 67 66 65 65 66 63 60 59 62 64 67 67 69 68 70 72 73 72 72 73 73 75 79 80 81 82 81 80 79 78 78 77 77 76 76 77
73 72 70 69 67 67 66 66 66 65 63 65 65 62 57 56 59 63 65 66 66 65 67 68 70 71 71 71 74 76 79 78 80 81 81 80 79 78 78 77 76 76 76
70 70 70 68 67 66 66 66 68 66 64 62 63 65 63 62 57 57 61 63 64 66 64 65 67 68 70 69 73 75 75 76 78 79 80 81 80 79 78 78 77 76 76
68 70 69 68 67 66 66 66 66 66 65 63 62 62 61 60 60 57 55 57 61 62 64 64 64 66 68 68 68 70 73 74 74 76 78 79 80 80 79 79 78 77 77
64 67 69 68 66 65 66 66 66 66 64 64 63 61 60 58 58 57 55 56 56 59 62 62 63 64 66 67 72 74 75 74 73 74 75 77 79 80 81 80 79 79 79
63 65 66 66 65 65 66 65 65 64 64 63 62 61 61 60 60 59 57 55 55 57 59 60 62 61 65 62 64 71 73 72 72 72 72 73 75 77 78 80 81 80 80
65 65 66 66 66 67 67 66 64 65 64 64 63 62 61 61 60 59 58 55 51 52 54 57 59 59 60 61 68 71 66 69 70 70 70 71 71 72 74 76 77 79 79
66 66 66 66 67 67 67 66 64 64 65 64 63 63 62 61 59 59 58 57 52 48 48 53 55 58 59 60 64 66 64 68 69 70 69 69 69 70 72 72 73 74 75
65 66 66 66 66 66 66 64 63 64 64 63 63 63 62 61 60 59 58 56 55 52 51 53 55 56 59 63 66 65 65 68 67 68 68 68 68 69 70 71 71 71 73
65 65 66 65 65 65 65 64 64 64 63 63 63 62 63 62 59 58 58 56 55 54 54 54 55 58 58 60 62 62 63 63 64 67 68 68 67 67 69 69 69 69 70
65 66 65 65 64 64 64 64 64 65 64 63 63 62 62 64 60 58 57 57 56 55 54 54 55 57 56 61 61 59 62 66 65 68 67 67 67 66 66 66 66 66 67
65 65 65 64 64 65 64 64 64 64 63 64 63 62 61 60 59 58 57 57 57 57 55 55 57 62 60 60 59 60 60 63 65 68 67 67 66 66 65 64 64 63 63
64 64 65 66 65 65 65 64 64 63 63 63 63 62 61 60 60 59 58 58 57 56 55 54 57 59 58 60 59 58 59 63 62 67 67 66 67 68 66 64 63 63 61
68 65 65 65 65 65 68 65 64 64 63 62 62 62 61 63 65 62 59 58 56 56 55 55 56 57 56 56 57 59 58 60 62 64 62 64 66 69 70 65 67 66 63
67 64 64 64 64 68 66 66 66 63 63 61 60 59 59 64 63 65 64 64 61 56 55 55 55 54 55 56 59 59 58 55 54 65 60 63 67 67 71 69 67 65 63
66 63 64 64 64 65 64 63 66 62 61 60 57 57 58 61 61 59 61 62 62 62 62 57 54 54 54 57 60 56 56 55 56 61 60 58 63 62 68 70 66 64 63
66 65 63 63 63 65 62 61 63 61 59 58 58 58 56 56 57 58 57 55 55 55 55 57 55 56 57 59 60 58 57 56 57 58 59 55 63 62 67 70 66 65 62
63 63 63 63 62 62 60 59 59 59 58 57 56 56 57 56 58 58 55 53 52 53 58 59 59 58 58 59 59 57 55 54 53 56 63 57 61 60 63 68 69 64 62
63 62 64 62 61 62 59 57 57 57 56 55 55 55 58 56 55 54 52 50 52 52 52 54 57 57 58 58 60 58 56 53 53 53 61 57 59 60 60 66 68 66 64

GFSMA_sfc_temp_006.txt.gz
Temp
71 72 73 73 73 74 74 74 73 73 73 74 75 75 75 75 76 78 77 79 80 81 82 82 83 82 82 81 81 81 81 81 81 81 81 81 81 80 80 80 80 80 79
72 72 72 73 73 73 74 73 73 72 72 73 73 74 75 75 75 76 78 77 79 81 81 82 82 82 82 82 81 82 82 81 81 81 80 80 80 80 80 80 80 80 79
72 72 72 72 72 73 73 72 72 72 72 73 72 73 73 73 74 74 77 76 77 79 80 81 82 82 81 83 82 82 81 81 81 80 80 80 80 79 79 79 79 79 79
74 73 71 71 72 72 72 72 71 71 71 70 70 72 72 72 73 74 75 77 75 78 78 79 81 81 82 82 82 81 81 80 80 80 80 80 79 79 79 79 79 79 78
75 73 71 71 72 71 71 70 70 69 69 70 71 72 72 72 72 75 73 74 75 76 78 79 79 80 82 84 83 81 81 80 80 80 80 79 79 79 79 79 78 78 78
75 73 72 72 72 71 70 69 69 69 69 69 71 71 71 71 72 73 73 75 75 76 77 77 77 77 79 82 82 81 82 81 79 79 79 79 79 79 78 78 78 78 78
74 73 72 72 71 71 71 71 70 69 69 69 67 69 69 70 71 72 73 74 75 76 75 75 75 76 77 78 79 81 81 82 81 80 79 78 78 78 78 77 77 77 77
74 73 72 72 72 71 70 70 69 68 68 69 66 63 63 68 70 72 72 72 71 73 74 74 74 75 75 75 76 78 79 80 81 81 80 79 78 78 78 77 76 77 77
74 73 73 72 71 70 69 69 69 68 67 68 68 65 61 61 63 69 70 70 69 68 69 71 72 73 73 74 74 75 76 75 78 81 81 80 78 78 77 77 77 76 76
73 73 72 71 70 69 69 69 70 69 67 66 67 67 67 66 61 61 68 68 69 70 68 69 70 71 72 72 73 73 73 74 75 76 79 80 80 79 78 78 77 76 76
71 71 71 70 70 69 69 69 69 68 68 66 66 65 65 64 64 61 59 64 67 67 68 67 68 69 71 70 70 72 73 73 73 75 75 76 78 80 81 80 78 78 77
68 69 70 70 69 68 69 69 69 68 68 67 66 65 64 63 62 62 60 61 61 65 66 68 68 68 70 68 72 72 72 72 71 71 72 74 75 77 79 81 80 79 79
66 67 68 68 68 68 68 68 68 68 68 67 66 65 65 64 64 63 62 61 59 63 63 67 67 67 70 67 68 72 72 69 69 69 69 70 72 74 76 78 80 80 80
68 68 68 68 67 68 69 69 68 68 67 67 67 65 65 65 64 64 62 60 57 58 61 64 66 66 66 68 69 70 69 68 68 67 67 68 69 71 72 74 76 78 79
68 67 68 68 68 68 69 69 68 68 68 68 67 67 66 67 66 64 63 62 59 56 58 63 63 66 67 67 68 70 68 68 68 67 66 66 67 68 70 71 72 73 75
67 67 67 67 68 68 68 68 67 68 67 68 67 66 66 66 66 65 64 62 60 58 56 61 64 64 66 67 68 69 68 67 67 66 66 66 67 67 68 69 70 70 72
66 66 66 67 67 67 68 66 66 67 67 67 67 66 66 66 66 65 63 62 60 58 57 64 63 66 64 65 66 67 67 66 68 66 66 66 66 66 66 68 68 68 69
66 66 67 67 67 67 67 66 67 69 67 67 67 66 66 68 65 65 63 62 61 60 58 58 64 64 63 65 65 63 65 68 68 68 66 65 65 65 65 65 65 66 66
66 66 67 66 66 66 66 66 67 67 66 66 67 66 66 65 64 64 63 62 61 62 59 59 61 65 64 66 64 64 64 65 67 68 66 66 66 65 64 64 63 63 62
66 66 66 66 66 66 67 67 67 66 66 67 67 66 66 65 64 64 63 62 62 61 61 59 61 62 63 65 64 61 62 66 65 69 69 67 66 66 66 64 64 63 61
67 67 66 66 67 68 70 67 67 66 66 67 67 66 66 66 66 64 63 63 61 60 60 59 60 62 62 63 61 64 61 63 64 66 66 68 68 69 69 67 68 67 63
66 67 66 66 66 70 66 65 68 67 67 66 66 65 64 65 64 64 64 64 64 61 60 59 61 59 60 61 63 61 61 59 57 67 65 64 67 64 68 68 68 66 64
67 66 66 66 66 67 63 63 65 66 66 65 63 63 63 64 64 63 63 62 62 62 62 62 57 59 59 61 61 59 58 57 57 62 61 58 63 61 67 70 66 65 63
65 66 66 66 66 67 62 61 63 66 65 64 63 62 61 62 62 62 62 61 61 61 61 62 60 60 60 61 60 60 57 57 58 59 62 53 61 60 65 69 66 65 63
65 66 66 65 64 65 59 59 61 64 63 63 62 61 61 61 59 58 61 59 59 59 60 59 58 58 58 58 59 57 55 54 53 56 62 57 59 60 62 64 69 65 63
65 65 65 64 61 63 59 57 59 62 62 61 60 60 58 58 55 54 59 57 56 58 57 57 58 59 59 59 59 59 57 53 53 52 60 55 57 57 55 63 67 68 69

GFSMA_sfc_temp_009.txt.gz
Temp
83 84 84 85 85 87 87 85 85 84 83 84 85 83 84 83 84 87 88 82 80 80 82 83 83 82 83 82 82 81 81 81 81 80 81 81 80 80 80 80 80 80 80
81 80 83 83 86 85 87 85 83 83 83 84 84 84 84 85 83 83 87 87 79 80 81 82 83 82 82 82 82 82 81 82 81 81 81 80 80 80 80 80 80 80 80
81 82 81 80 85 84 82 83 82 84 84 85 82 84 85 84 85 83 84 86 88 81 80 81 82 82 82 82 82 82 82 80 81 81 80 80 80 80 80 79 80 79 79
84 83 80 81 83 83 84 83 83 83 84 83 82 83 84 84 83 84 85 84 85 88 85 80 80 81 82 83 83 81 82 80 80 80 80 80 80 80 79 79 79 79 79
83 82 81 80 81 83 81 83 83 81 82 82 83 84 84 83 83 87 83 84 85 85 87 84 79 80 82 84 83 82 81 80 80 80 80 80 79 79 79 79 79 78 78
83 82 82 80 82 83 83 82 79 81 80 80 81 82 83 85 84 85 84 86 85 85 85 83 86 88 78 80 81 82 82 81 80 80 79 79 79 79 79 78 78 78 78
82 82 80 81 81 82 81 80 81 78 82 81 78 82 83 83 82 84 85 85 84 85 84 83 84 85 88 79 78 78 81 82 81 80 79 79 78 78 78 78 77 78 78
82 82 81 81 81 82 79 79 78 80 80 80 77 76 76 79 84 84 83 83 81 84 83 83 82 81 82 84 80 77 77 77 78 80 80 79 79 78 78 77 77 77 77
82 82 81 82 80 81 82 79 79 76 78 78 76 76 74 74 76 82 81 83 79 81 81 81 81 80 79 81 81 80 75 75 76 77 78 79 79 78 78 78 77 76 76
82 82 81 81 79 82 79 80 80 79 77 77 79 77 76 75 74 75 82 82 82 81 79 81 81 80 79 81 78 75 74 73 74 75 76 77 77 78 79 79 78 77 76
81 82 80 80 79 81 79 78 78 77 79 78 78 78 76 77 74 74 73 77 81 82 81 81 82 82 80 79 81 77 73 72 72 72 73 74 75 77 78 79 79 78 78
81 79 80 79 80 80 78 79 78 76 77 77 77 77 78 76 76 75 73 73 73 78 80 82 81 81 81 80 79 74 74 71 71 70 70 71 72 73 76 78 79 80 80
80 79 78 78 80 78 78 78 77 77 77 77 75 78 78 78 78 76 74 74 72 77 78 80 82 81 81 80 79 73 74 70 69 68 68 69 70 71 72 74 76 78 79
81 80 79 79 79 78 78 77 79 80 78 77 76 76 78 78 78 77 75 73 71 74 75 72 80 81 80 80 77 72 79 71 69 67 67 67 68 69 69 71 72 73 75
82 79 79 78 78 77 77 77 80 78 77 77 77 77 77 79 79 78 76 75 72 69 72 77 74 79 78 79 78 77 77 72 68 67 66 66 66 67 68 69 69 70 71
79 78 78 78 78 77 78 76 78 78 76 78 78 76 76 79 79 77 76 76 74 72 69 78 76 77 77 77 77 76 77 70 70 68 66 66 66 67 67 68 68 68 69
77 77 77 77 78 77 77 76 76 77 76 76 77 75 75 75 77 77 76 75 74 73 69 75 78 76 72 73 75 76 77 76 78 69 67 66 66 66 66 66 66 67 67
77 77 77 76 77 78 78 76 76 78 76 76 77 76 76 78 74 74 76 73 73 73 71 67 73 75 74 74 73 72 75 78 77 73 67 66 65 65 64 64 64 64 64
76 77 76 75 76 77 77 77 76 76 77 76 76 76 76 75 74 76 74 75 76 71 71 67 70 75 76 76 74 74 73 74 76 72 67 66 65 65 64 64 63 62 61
73 74 75 77 77 78 77 77 77 76 76 77 77 77 76 75 74 74 74 73 73 72 72 71 71 73 75 75 74 72 72 76 75 78 74 71 69 69 67 65 64 64 61
68 70 72 74 76 77 80 76 77 77 76 77 77 76 76 75 70 70 73 73 71 72 73 72 71 73 73 73 70 73 71 73 73 75 74 76 76 77 76 71 71 68 65
66 67 69 70 72 77 69 67 73 77 77 76 75 77 76 69 69 65 65 65 67 69 68 66 69 69 67 69 71 70 69 68 65 74 71 71 75 73 75 75 69 66 65
66 67 68 69 73 75 65 64 66 76 76 76 75 75 75 77 68 73 68 64 64 63 63 67 64 66 66 68 66 64 64 60 59 67 68 67 72 71 69 70 66 64 64
69 66 69 72 74 75 62 61 64 74 74 76 75 74 72 71 72 69 70 70 71 71 70 71 69 68 68 68 65 63 58 57 61 67 69 64 70 66 66 67 66 64 63
68 70 70 71 72 72 60 59 63 68 69 69 74 71 70 70 63 59 66 67 68 69 66 60 59 58 58 58 60 60 58 59 58 65 70 60 60 59 61 63 69 66 63
69 69 71 73 70 73 58 57 61 64 65 68 71 67 60 64 56 55 66 67 65 67 67 67 67 66 64 66 61 65 62 55 57 56 62 55 55 56 53 62 69 71 73

GFSMA_sfc_temp_012.txt.gz
Temp
90 90 90 89 90 94 95 91 92 90 89 90 91 90 91 91 90 94 94 82 80 81 83 84 83 83 83 82 81 82 81 81 81 81 81 81 80 81 80 80 80 80 80
88 92 90 90 90 90 94 90 89 89 90 91 91 90 90 92 91 89 93 92 81 80 81 83 83 83 83 82 82 82 82 81 81 81 81 81 80 80 80 80 80 80 80
87 87 89 89 90 90 87 89 87 87 88 92 89 90 91 91 92 90 92 93 92 81 82 82 82 82 82 83 82 82 81 81 81 81 80 80 80 80 80 80 80 80 80
88 89 89 90 91 90 87 86 86 89 90 90 89 90 90 91 90 90 92 92 94 94 84 82 81 82 83 83 82 82 81 81 81 80 80 80 80 80 79 80 79 79 79
89 89 90 87 88 86 86 86 90 88 88 88 90 91 91 91 90 95 91 91 91 92 94 82 81 81 82 84 83 82 81 80 80 80 80 80 80 79 79 79 79 79 78
89 87 87 87 87 83 86 90 84 88 86 87 88 89 90 92 92 93 92 94 90 92 93 90 91 89 80 80 81 82 81 81 80 80 80 79 79 79 79 79 78 78 78
89 87 89 87 85 87 87 86 86 84 86 89 85 89 88 88 90 92 93 91 89 92 90 90 91 91 87 80 78 78 80 81 81 81 80 79 79 79 78 78 78 78 78
88 88 87 87 86 90 84 84 83 85 87 87 83 84 83 84 88 92 90 89 86 91 90 88 87 85 87 86 82 76 76 76 78 79 79 79 79 78 78 77 77 77 77
88 87 87 88 86 86 88 84 84 81 84 86 82 81 80 81 83 87 86 88 86 88 88 87 86 85 84 86 85 81 74 74 75 75 77 77 77 78 78 78 77 77 77
89 88 87 86 84 88 85 85 86 83 81 83 86 85 81 80 80 81 86 86 89 87 84 89 88 85 85 88 80 74 74 73 74 74 75 75 76 76 78 78 77 77 77
88 89 86 85 84 86 84 84 83 81 85 83 85 85 82 85 82 80 79 84 87 88 89 89 89 90 85 86 87 77 74 72 72 72 73 73 74 75 76 77 78 78 78
89 87 86 85 84 85 83 84 82 81 81 82 84 84 84 82 83 81 79 80 80 85 88 89 88 89 89 89 83 75 74 72 71 71 70 71 72 73 74 75 76 78 79
90 86 84 83 85 83 84 83 81 82 81 82 80 84 86 84 85 83 80 80 80 84 85 86 88 87 87 87 86 74 77 72 71 69 69 69 70 71 72 72 73 74 76
90 88 85 85 84 84 84 82 84 84 83 82 80 80 84 85 85 84 81 79 77 80 83 79 87 87 87 86 83 74 82 72 71 69 68 68 68 69 70 71 71 72 72
91 88 85 84 85 84 83 82 84 82 82 81 82 81 82 85 86 86 84 82 78 73 77 83 83 85 85 86 83 82 82 76 70 69 68 67 67 68 68 69 69 69 70
86 86 85 84 84 83 82 81 83 82 81 83 84 81 80 84 85 85 84 83 81 78 74 83 83 84 84 83 82 81 81 74 73 70 68 67 67 67 68 68 68 68 68
84 84 83 83 83 82 82 80 81 82 81 80 81 80 80 80 83 85 85 84 82 81 76 80 83 83 80 79 81 81 82 81 83 71 69 67 66 66 67 67 67 67 67
83 83 82 81 81 83 82 80 80 83 80 80 80 80 80 83 80 80 83 79 80 80 78 72 76 79 79 80 80 78 80 84 83 78 69 67 66 66 65 65 64 65 64
77 78 78 75 79 81 80 81 81 81 81 81 81 80 80 81 78 81 80 80 82 81 80 78 76 80 80 81 80 80 79 80 82 76 70 69 68 66 65 63 63 62 62
77 73 77 76 77 78 79 80 80 80 80 81 81 81 81 81 79 79 79 78 78 77 77 77 76 77 74 78 79 76 79 82 81 85 79 74 72 72 67 64 64 64 61
75 72 71 72 74 76 79 78 79 80 79 80 81 82 82 80 74 74 80 78 76 76 77 77 77 76 74 72 74 78 77 78 79 81 81 82 82 82 82 72 73 69 65
74 70 68 68 69 73 71 69 75 81 80 80 79 81 82 73 73 67 66 66 68 71 71 73 72 73 70 73 76 75 74 72 70 80 75 74 78 78 81 82 74 68 65
72 69 68 68 69 72 66 66 68 80 80 80 80 79 77 78 75 78 69 65 65 63 64 69 69 70 70 72 71 67 69 69 69 74 71 70 77 76 80 82 70 66 63
71 71 71 71 72 73 65 64 66 77 78 79 79 78 74 72 77 76 76 76 75 76 73 74 73 73 73 72 69 68 67 65 64 68 71 68 75 74 78 78 70 66 64
71 72 73 75 74 74 61 61 65 78 78 75 74 72 71 71 67 63 72 72 73 74 69 63 61 61 60 60 62 68 67 64 60 64 73 70 70 70 71 70 69 65 62
70 72 76 76 70 71 60 58 61 76 74 66 71 74 62 65 60 58 67 71 71 73 74 73 73 69 65 71 61 66 65 59 64 68 73 65 67 64 53 62 65 70 67

GFSMA_sfc_temp_015.txt.gz
Temp
90 92 92 92 91 91 84 91 85 89 88 88 86 92 93 93 94 95 95 82 82 82 84 84 83 82 82 82 81 82 81 81 81 81 81 81 81 81 80 81 81 81 79
88 87 88 92 92 88 85 85 90 85 82 84 83 90 92 93 93 92 95 90 82 83 83 84 84 83 83 82 82 82 82 81 81 81 81 81 81 80 80 80 81 81 80
90 89 89 92 89 91 89 89 86 88 88 90 93 93 93 93 94 91 93 95 88 82 83 84 83 82 82 83 82 82 82 81 81 81 81 80 80 80 80 80 80 80 80
90 89 90 91 88 90 88 86 88 78 90 92 91 92 92 93 92 91 93 93 94 96 84 82 83 82 83 83 83 82 81 81 81 80 80 80 80 80 80 79 80 79 79
90 89 90 91 90 90 87 87 85 88 89 89 91 93 92 93 92 96 92 92 92 93 95 82 82 82 83 84 83 82 81 80 80 80 80 80 80 80 79 79 79 79 79
91 90 92 89 88 86 88 81 85 88 86 88 90 91 92 93 92 93 92 95 92 93 92 91 87 86 82 83 82 81 81 80 80 79 79 79 79 79 79 79 78 78 78
89 87 88 82 88 87 82 87 87 86 87 89 85 89 89 89 90 92 93 92 90 93 92 91 89 87 84 79 78 78 79 80 80 80 79 78 78 79 78 78 77 78 78
90 87 87 91 88 90 86 85 84 84 88 87 83 84 82 81 86 91 91 90 88 92 91 89 89 86 82 83 80 76 76 76 78 78 77 77 78 78 78 77 77 77 77
91 89 88 87 87 87 89 84 85 83 84 87 84 82 81 77 82 83 86 88 87 88 89 87 87 86 86 86 81 78 74 75 76 76 76 76 76 77 77 77 77 77 77
91 90 89 89 87 88 86 86 87 83 82 83 87 86 83 81 79 77 82 86 87 87 85 89 88 86 86 88 79 75 74 74 74 75 75 75 75 76 76 77 77 77 76
90 91 89 88 85 87 86 84 84 82 85 83 86 86 82 84 82 80 79 81 87 87 88 88 88 89 86 86 87 76 74 73 73 73 73 73 74 75 76 76 77 77 78
90 88 89 87 86 86 86 85 84 83 82 82 84 84 84 82 83 82 80 81 82 85 88 88 87 88 89 88 81 77 75 74 72 72 71 72 72 73 74 75 76 76 77
92 87 87 85 86 84 86 85 82 83 82 82 81 84 87 85 86 84 82 81 81 85 85 88 88 88 88 87 86 79 77 75 73 71 70 70 71 72 72 73 74 74 75
93 89 87 86 85 85 85 84 84 84 84 83 81 81 84 86 87 85 82 80 71 73 78 80 85 88 87 87 83 77 83 74 73 70 70 69 69 70 70 71 71 72 72
95 90 88 85 85 85 84 83 84 83 83 83 82 82 82 85 87 87 85 76 70 65 69 74 75 81 86 87 84 84 82 78 73 70 69 68 68 69 69 69 70 70 70
90 89 87 86 85 85 84 82 84 83 82 84 84 83 82 84 86 86 80 81 77 76 71 78 82 85 84 85 83 83 82 76 72 70 69 68 68 68 68 69 68 68 69
88 88 86 85 84 83 83 81 82 83 82 81 81 81 81 81 82 84 85 84 83 82 78 81 83 84 80 80 81 82 83 79 83 73 70 68 67 67 68 68 67 67 67
88 86 84 83 84 80 81 80 81 82 81 80 80 80 80 84 79 79 82 74 74 81 79 73 78 80 79 80 80 80 82 85 84 79 70 68 67 66 66 66 65 65 65
86 85 84 79 81 77 76 76 80 79 79 81 81 80 81 81 80 81 80 80 82 81 81 79 77 81 78 80 80 77 73 75 80 78 72 68 67 66 66 64 64 63 62
84 82 82 81 79 75 76 76 77 76 79 81 81 82 82 81 80 79 79 78 79 78 78 78 78 77 76 72 80 76 72 71 77 86 81 76 73 72 67 65 64 64 61
83 82 81 80 78 76 78 73 77 76 77 78 80 82 81 81 76 74 79 78 77 77 78 78 77 75 77 73 73 76 73 74 73 81 81 82 82 82 81 73 71 67 64
82 81 80 78 74 75 69 69 75 77 77 79 79 81 81 76 74 69 68 67 69 71 71 73 74 72 70 73 75 72 73 72 69 80 75 76 79 78 80 82 75 69 65
80 78 79 77 75 75 64 66 68 79 77 77 76 79 80 85 75 79 67 65 65 65 65 71 68 69 70 72 71 69 69 69 68 73 72 69 75 75 77 82 69 66 65
76 78 76 75 75 77 64 63 66 73 75 75 75 79 77 75 75 73 71 68 71 77 73 72 72 72 72 73 70 69 68 67 70 73 73 65 73 71 74 80 70 68 66
75 74 75 73 73 74 62 62 65 70 73 71 74 77 76 73 65 64 66 67 72 75 74 66 65 64 63 63 65 70 68 69 67 69 74 72 71 74 75 74 75 70 64
75 74 73 73 70 77 61 60 64 73 72 69 70 72 63 66 59 59 64 68 69 73 75 77 74 69 63 68 62 66 70 67 69 67 74 71 71 70 61 69 70 66 64

GFSMA_sfc_temp_021.txt.gz
Temp
77 74 78 76 75 78 81 79 79 77 77 79 79 79 80 81 80 79 75 81 81 82 82 83 82 82 82 82 81 81 81 81 81 81 81 81 80 80 80 80 80 80 79
75 76 77 79 81 80 80 77 77 76 75 77 80 82 80 80 80 77 77 77 81 81 81 82 83 82 82 82 82 82 81 81 81 81 80 80 80 80 80 80 80 80 79
79 77 76 77 77 80 80 77 78 76 78 80 79 79 78 80 80 80 77 76 78 81 82 82 82 81 82 82 82 82 81 81 81 80 80 80 80 80 79 79 79 79 79
79 77 77 76 79 79 78 74 74 73 76 73 73 74 76 79 80 83 80 77 77 80 81 81 81 81 82 81 82 81 80 80 80 80 80 80 79 79 79 79 78 78 79
80 77 76 76 77 75 73 73 73 72 71 72 75 74 73 78 79 84 80 81 78 77 77 80 80 81 83 84 82 82 81 80 80 79 79 79 79 79 79 78 78 78 78
79 77 76 75 76 74 73 73 73 75 72 71 78 76 73 75 75 78 81 83 80 82 78 77 75 77 80 82 82 81 81 81 79 79 79 79 79 79 78 78 78 78 77
80 76 76 76 76 74 73 75 72 71 70 72 69 73 70 79 77 77 75 75 77 78 78 75 75 73 75 78 78 79 80 80 80 80 79 78 77 78 78 77 77 77 77
78 78 75 75 75 74 76 73 72 67 69 73 68 65 66 73 76 79 74 75 73 75 77 76 74 73 72 71 74 77 77 77 78 77 78 77 76 76 77 77 77 77 76
79 78 77 75 74 75 72 72 71 70 67 71 70 67 62 61 69 73 73 72 72 71 71 73 74 73 72 70 72 74 75 75 77 77 77 76 76 76 76 75 75 75 75
78 78 77 76 75 73 72 71 72 69 68 66 69 72 68 68 63 66 70 70 71 73 71 71 72 73 72 69 73 74 75 74 75 75 76 76 76 76 76 76 76 75 75
78 80 77 76 74 72 71 72 71 69 69 67 66 68 67 66 66 63 61 67 73 71 70 70 71 71 71 68 67 71 75 74 74 75 74 74 75 75 76 76 76 76 76
75 77 77 74 74 72 71 72 71 70 69 68 68 67 66 65 65 63 61 63 68 71 69 70 71 70 70 68 74 75 75 74 73 73 73 73 74 75 75 76 76 76 76
73 74 74 73 73 72 73 72 71 70 69 68 69 67 67 66 67 66 64 62 63 65 70 70 71 73 74 70 71 74 75 73 72 72 72 72 73 74 75 75 75 75 75
77 75 75 75 73 73 73 72 70 70 70 69 69 69 68 67 67 67 67 64 60 60 63 69 70 71 75 70 71 75 70 72 71 71 70 70 71 71 72 73 73 73 74
78 77 77 76 74 73 72 71 70 72 71 69 71 69 68 69 68 68 69 67 64 58 59 65 70 72 71 73 71 70 69 72 71 71 69 69 69 69 70 71 71 71 71
77 77 76 76 74 74 72 70 69 71 69 72 70 71 71 67 68 68 67 66 66 64 60 64 66 68 71 73 74 70 71 73 72 70 69 68 68 69 69 70 69 69 70
75 76 77 76 75 73 73 70 69 70 69 70 70 70 69 69 68 68 68 67 67 66 62 64 66 67 67 68 70 69 70 69 69 70 69 68 67 68 68 69 68 68 68
76 78 77 75 75 75 72 72 70 72 69 69 69 68 70 72 69 69 68 66 66 65 64 62 64 66 67 68 68 67 70 75 70 72 70 68 67 66 66 66 66 66 66
78 78 77 76 75 74 73 74 72 69 68 68 69 68 68 69 69 68 70 68 66 67 64 63 63 65 66 66 65 65 66 66 70 72 69 68 68 67 65 64 63 63 62
79 76 77 77 75 74 73 72 69 67 68 68 69 69 70 70 68 70 69 68 66 64 64 63 62 63 63 65 63 62 62 63 65 72 72 70 68 69 67 64 63 63 61
79 78 75 75 74 74 73 71 71 69 68 68 68 69 71 72 72 71 69 66 66 64 63 62 61 61 64 63 59 61 60 61 62 65 64 64 63 63 64 65 67 67 64
78 77 75 73 72 74 70 69 72 72 68 67 66 68 72 72 72 69 67 65 65 63 62 61 61 62 63 63 61 59 59 58 57 64 60 64 63 62 65 63 67 66 64
79 76 75 75 72 73 66 66 69 68 67 67 67 69 70 74 71 68 64 64 64 64 65 66 62 61 60 61 61 59 58 57 57 64 58 58 60 59 65 67 66 65 64
79 76 76 73 73 71 65 64 68 69 67 67 68 68 67 67 67 66 66 64 65 66 65 65 61 65 62 63 61 61 59 57 56 57 57 53 58 57 62 63 66 65 63
78 77 75 75 72 68 62 62 64 66 67 67 67 67 65 66 66 63 67 65 65 65 65 63 63 63 62 62 63 58 56 55 52 54 57 55 60 55 58 61 63 64 63
75 74 72 72 68 68 60 60 63 68 66 66 65 66 65 66 62 61 63 61 63 62 62 61 62 61 61 61 63 59 61 54 53 52 58 55 56 55 55 57 57 63 64

GFSMA_sfc_temp_024.txt.gz
Temp
73 73 75 75 74 76 76 76 77 77 75 76 77 78 77 75 76 75 73 81 80 81 82 82 81 82 82 82 81 81 81 81 80 81 81 80 80 80 80 80 80 80 79
73 73 74 77 76 78 77 76 76 74 74 76 78 80 78 76 76 75 75 76 81 81 81 83 82 81 82 82 82 81 81 81 81 80 80 80 80 80 80 80 79 79 79
75 75 74 75 75 76 77 75 76 74 77 76 74 75 75 77 79 77 75 74 77 82 81 82 81 81 81 82 82 82 81 80 80 80 80 79 79 79 79 79 79 79 79
77 75 74 75 75 76 76 72 72 71 72 71 70 71 71 79 78 79 75 74 75 78 81 82 81 81 82 82 82 81 81 80 80 80 79 79 79 79 79 79 78 78 78
77 76 74 74 75 73 73 73 71 71 70 69 72 72 71 73 77 80 79 75 75 76 75 79 80 81 82 84 83 82 80 79 79 79 79 79 79 79 78 78 78 78 78
77 75 74 74 73 72 72 71 72 72 69 69 75 74 71 72 72 75 79 77 75 78 77 76 73 76 80 82 81 81 81 81 80 79 78 78 78 78 78 77 77 77 77
77 75 74 74 73 71 72 72 70 68 68 68 67 68 69 71 72 73 73 73 75 74 74 73 73 73 75 78 78 78 80 80 80 79 79 78 78 78 77 77 77 77 77
77 76 73 73 73 72 71 71 69 65 66 68 66 62 62 68 72 75 74 72 71 73 74 74 72 71 70 70 73 77 77 78 78 77 76 75 76 75 75 75 76 76 77
77 77 74 73 73 72 70 70 68 67 66 67 66 65 60 60 69 71 69 71 69 68 69 70 71 71 70 69 72 74 76 76 77 78 77 76 76 75 75 75 75 75 75
77 76 75 74 72 71 70 70 69 67 66 65 66 69 65 65 61 62 68 67 67 70 68 68 69 70 69 67 71 73 75 75 76 77 77 76 76 76 76 76 76 75 75
76 77 75 73 72 70 70 69 67 67 67 65 65 65 64 64 62 61 59 64 66 67 67 67 68 68 68 67 66 71 75 74 75 75 76 76 75 76 76 76 76 76 76
75 75 75 73 71 70 69 69 68 67 67 66 65 65 64 63 62 61 59 59 61 65 66 67 67 67 67 67 72 74 75 74 73 73 74 75 75 76 77 77 77 77 76
70 73 73 71 71 70 70 69 68 70 68 66 66 64 64 64 64 63 62 59 60 63 65 67 67 67 70 66 68 74 75 73 72 72 72 72 73 74 75 76 76 76 77
76 73 74 73 72 71 70 69 68 68 67 67 67 65 65 65 64 65 64 62 58 58 60 65 67 68 67 69 70 75 69 71 71 69 69 70 71 71 73 74 74 74 75
76 74 74 73 72 71 70 69 67 67 67 66 66 66 66 66 66 65 64 64 63 57 58 62 64 68 68 68 69 69 67 71 70 69 69 68 69 70 70 71 71 71 72
76 74 74 73 73 71 69 68 67 68 68 67 69 69 67 66 65 65 65 64 63 62 58 62 65 66 67 70 71 68 69 71 70 69 69 68 68 69 69 70 69 69 70
76 74 74 74 73 71 70 69 67 68 67 66 68 67 67 67 65 64 67 64 63 63 63 63 63 65 66 67 68 67 68 67 67 69 68 68 67 67 68 68 68 68 68
76 76 75 74 73 73 71 71 69 71 68 66 66 66 67 69 68 68 67 66 67 64 66 64 62 63 64 65 65 65 68 71 67 71 69 67 66 66 65 65 65 65 65
75 75 75 74 73 73 71 71 71 69 69 68 67 66 66 66 66 66 67 67 66 66 64 63 61 62 64 64 64 63 64 64 68 71 68 67 67 66 66 64 62 61 60
75 74 75 74 74 73 73 72 72 70 68 67 67 67 67 66 67 69 67 67 65 64 63 62 61 62 63 65 64 62 61 61 62 69 69 67 66 67 66 64 64 64 61
78 74 74 74 73 73 74 72 71 70 67 66 66 67 67 69 70 67 68 65 66 64 62 62 61 64 65 61 62 64 59 59 62 61 60 60 60 61 63 63 66 67 64
76 73 73 73 71 73 70 68 72 70 69 68 66 65 67 69 70 69 66 66 65 63 63 61 61 63 63 62 59 59 57 56 55 62 59 59 59 58 60 60 65 64 63
76 74 72 72 71 72 67 66 69 67 67 67 67 65 67 71 69 67 64 65 65 65 65 64 63 63 59 60 59 58 57 56 55 61 56 53 57 56 60 64 64 63 63
77 74 73 72 72 71 65 64 67 69 68 69 69 68 66 67 65 66 64 63 64 65 65 67 65 67 62 62 60 60 59 57 55 56 55 52 55 55 58 59 63 63 63
77 76 76 73 71 70 62 62 65 67 67 67 68 68 68 65 62 62 63 62 63 63 63 62 62 62 61 61 61 58 57 53 52 53 55 53 54 53 54 56 59 63 61
77 78 75 73 70 72 59 59 65 66 65 65 66 66 63 64 60 59 62 61 60 61 61 61 60 60 60 60 61 59 57 55 52 51 55 53 52 51 50 52 55 56 57

GFSMA_sfc_temp_027.txt.gz
Temp
72 72 72 73 73 75 75 76 76 76 74 75 75 75 73 73 74 73 71 80 80 81 83 82 82 82 82 81 81 81 81 81 80 80 81 80 80 80 80 80 79 79 79
72 72 71 74 74 76 76 76 75 74 73 75 78 76 75 74 74 73 72 73 80 81 81 83 82 82 82 82 81 81 81 81 81 80 80 80 79 79 79 79 79 79 78
73 72 71 72 73 73 75 75 73 75 76 75 72 74 73 74 74 75 73 73 75 81 82 82 82 81 80 82 82 81 80 80 80 80 79 79 79 79 79 79 79 79 79
75 72 72 73 74 74 73 71 71 70 70 71 69 70 70 77 76 74 73 73 73 76 79 82 81 81 82 82 82 81 81 79 79 80 80 79 79 79 79 79 78 77 78
76 74 73 73 73 72 72 71 70 70 68 70 70 70 69 75 77 77 74 73 72 74 74 79 81 80 82 83 83 82 81 80 79 79 79 79 79 79 78 78 78 77 77
76 74 73 73 73 71 71 70 70 69 67 67 72 71 69 70 70 73 77 76 73 75 77 74 72 75 80 82 81 81 81 81 79 79 79 78 78 78 78 77 77 77 77
76 74 73 72 72 71 70 70 69 68 66 66 66 66 67 68 69 71 70 71 72 73 73 72 72 72 75 79 79 79 80 80 79 79 79 78 78 78 78 77 77 77 77
75 75 73 72 72 70 70 69 68 64 65 65 64 61 62 66 68 71 71 74 70 71 72 72 70 70 70 70 74 78 78 79 79 78 77 75 76 75 75 75 75 76 77
76 75 73 72 71 71 69 68 68 65 65 65 64 64 59 59 62 68 68 70 68 67 68 69 69 70 69 68 71 74 76 76 78 78 77 76 76 75 74 75 74 75 75
77 75 74 72 71 70 69 68 69 65 65 64 64 66 63 63 60 60 64 68 66 67 65 66 68 69 68 66 72 73 75 75 77 78 77 77 76 76 76 76 75 75 75
74 75 74 72 70 69 69 69 67 66 65 65 63 63 63 62 61 60 58 62 64 64 65 65 66 67 67 67 66 70 75 75 75 76 77 77 77 77 77 77 76 76 76
72 74 74 72 70 69 69 68 67 66 66 65 64 63 63 63 61 60 58 58 60 64 64 65 65 65 67 66 71 74 75 74 74 74 74 75 76 77 77 77 77 77 77
70 72 72 71 69 69 69 68 66 66 66 65 65 64 63 63 63 61 60 57 59 61 63 64 65 65 68 65 66 74 75 73 72 72 72 73 73 74 75 76 77 77 77
73 75 74 72 70 69 69 67 66 66 65 65 65 64 67 64 63 63 63 60 57 57 58 64 64 64 65 65 67 73 68 72 71 70 69 70 71 71 72 74 74 75 75
75 72 74 72 71 70 69 67 66 66 66 65 64 65 65 64 63 63 62 63 62 57 61 64 62 65 66 66 67 68 67 70 70 69 68 68 68 69 70 71 71 71 72
73 73 73 72 71 70 69 68 66 66 66 64 64 64 64 63 63 63 62 61 61 61 59 62 65 64 66 68 70 68 67 70 70 68 68 67 68 68 69 69 69 69 70
72 73 73 72 71 70 69 68 66 66 65 65 65 65 65 64 63 66 63 61 61 61 60 63 65 66 65 65 67 67 68 65 65 68 68 67 67 67 67 67 67 67 68
73 73 73 72 72 71 70 69 68 69 65 64 65 65 65 67 64 64 65 63 63 62 65 64 65 65 65 64 64 64 67 70 68 70 67 66 65 65 64 64 64 64 63
74 74 73 72 72 71 70 70 70 68 67 66 65 64 65 65 63 63 63 62 62 63 63 62 63 64 65 64 66 65 64 64 68 70 69 68 66 66 65 65 64 63 61
74 74 74 74 73 72 72 71 70 68 66 67 66 66 65 65 64 64 64 63 62 62 63 62 61 61 63 65 64 63 64 63 64 69 69 66 66 66 65 63 63 63 61
75 75 73 73 73 73 73 72 71 69 66 67 67 68 66 67 68 66 65 63 63 62 61 61 61 62 63 62 62 63 61 58 59 61 59 61 59 59 60 62 65 66 63
76 73 73 73 72 73 69 68 72 70 68 68 66 65 66 69 68 67 67 66 65 63 60 59 60 60 61 62 61 60 59 57 55 61 56 57 58 59 59 59 64 63 62
75 72 73 73 71 72 66 66 68 69 67 66 65 67 67 70 67 66 65 65 65 65 65 62 60 62 61 61 60 57 56 55 55 57 56 53 55 55 60 61 63 63 62
74 74 72 72 72 71 65 63 67 68 66 67 68 67 68 68 67 65 63 62 63 64 63 65 65 65 62 63 60 59 58 56 55 57 55 51 56 56 59 57 62 63 61
75 74 72 71 71 70 62 61 64 68 67 67 68 68 68 67 63 62 64 62 61 61 62 61 61 61 60 60 60 57 56 54 52 53 54 52 53 52 52 56 60 62 60
76 76 73 72 69 72 60 59 64 68 66 66 66 66 63 65 59 59 63 61 61 61 60 61 60 59 59 59 61 58 57 54 51 49 53 52 50 50 49 51 52 55 54

GFSMA_sfc_temp_030.txt.gz
Temp
74 74 74 75 74 76 77 77 76 77 77 78 79 78 76 76 78 78 77 79 79 81 81 82 82 82 81 81 80 81 81 81 80 80 80 80 80 79 79 79 79 79 79
73 73 73 74 75 76 77 76 76 77 77 77 78 78 78 78 77 77 78 78 80 80 81 82 81 82 82 82 82 81 81 81 80 80 80 80 79 79 79 79 79 79 79
74 74 73 74 74 76 76 75 76 77 76 76 74 75 77 77 77 78 78 78 79 80 82 82 81 81 80 82 82 82 81 81 80 80 80 79 79 79 79 79 79 79 79
75 74 73 74 76 74 75 74 74 74 74 74 73 73 74 77 77 78 78 78 78 81 80 81 81 80 82 82 80 82 81 79 78 80 79 79 79 79 79 79 78 78 78
75 75 75 75 75 74 74 74 73 73 72 72 75 74 73 74 76 80 78 78 77 79 79 79 80 79 82 83 82 80 81 80 78 79 79 79 79 79 78 78 78 78 78
76 75 75 75 75 74 73 73 73 72 71 70 74 73 72 74 74 76 79 79 77 78 79 78 78 80 80 81 81 81 81 81 80 79 78 78 78 78 78 78 77 77 77
77 75 75 74 74 74 74 74 72 72 71 70 70 71 72 72 73 73 75 77 78 78 78 78 78 77 77 79 78 79 80 80 81 80 79 78 77 78 78 77 77 77 77
76 76 74 74 74 73 73 72 72 70 69 70 68 67 67 71 73 74 72 76 75 77 78 77 76 76 76 76 79 78 78 79 79 79 78 77 77 75 75 73 74 75 76
77 76 75 74 74 74 73 72 71 70 69 69 69 69 65 65 68 71 70 73 73 74 75 75 75 75 75 76 76 77 76 76 78 78 77 76 76 75 75 75 75 75 75
76 76 75 74 74 74 72 72 71 70 69 70 69 69 68 69 67 67 70 71 71 74 73 74 75 75 74 75 75 75 76 76 77 78 78 77 77 76 76 76 76 75 75
76 77 75 74 74 74 72 71 70 69 69 69 69 68 67 67 67 67 66 69 70 71 72 72 73 75 74 74 74 73 76 75 76 77 77 77 77 77 78 77 77 76 76
74 75 75 75 74 73 72 71 70 70 69 69 69 69 69 69 68 67 65 65 68 70 71 71 71 72 74 74 74 74 75 75 74 74 75 76 76 77 78 78 78 78 78
73 74 74 73 73 72 72 71 69 69 69 69 68 69 69 69 68 67 67 65 67 68 69 71 72 72 73 74 74 75 75 73 73 72 72 73 74 74 76 76 77 77 78
75 75 75 75 74 73 72 70 70 70 69 69 68 69 69 69 69 68 68 67 65 66 67 71 71 73 71 72 73 72 75 71 71 70 69 70 71 72 72 73 74 74 75
76 75 75 75 74 73 72 70 70 69 69 69 69 69 70 69 70 69 69 69 68 65 66 70 70 72 73 72 72 75 74 71 70 69 69 68 68 69 70 71 71 71 72
75 74 74 74 74 72 72 70 70 69 69 69 69 68 68 69 69 69 69 68 68 68 67 69 70 71 72 74 73 74 73 71 70 69 68 67 67 68 69 69 69 69 69
74 74 74 74 73 72 71 70 69 69 69 68 69 68 68 68 69 69 69 68 68 68 68 69 67 69 69 72 73 73 74 73 74 67 67 67 66 66 67 67 67 67 67
74 74 74 74 73 73 72 71 70 71 69 68 69 68 68 69 68 68 69 67 68 68 69 67 68 67 68 68 69 69 72 76 74 71 67 66 65 65 65 65 64 65 64
73 74 74 73 72 72 71 71 71 70 70 70 69 69 69 69 68 68 68 68 69 67 67 68 69 67 70 71 69 67 71 71 71 70 68 67 66 66 65 65 63 62 61
73 73 74 74 73 73 72 72 72 71 70 71 70 70 70 69 69 68 68 67 66 66 66 66 66 66 69 69 67 64 66 67 66 70 71 68 67 66 65 63 63 63 61
75 74 74 74 74 74 74 72 72 71 70 70 71 71 70 69 69 68 69 66 66 66 65 65 65 66 67 66 64 65 62 62 67 69 69 70 71 70 70 66 67 66 63
75 74 74 74 73 75 70 68 72 72 71 70 69 69 70 69 68 66 67 67 67 66 65 65 64 64 66 67 64 63 61 65 64 68 67 68 69 69 71 71 66 63 62
75 74 74 74 73 74 65 66 69 72 70 69 69 69 69 69 68 70 65 65 65 65 67 67 65 65 67 67 66 64 63 63 64 68 65 65 67 67 70 71 63 62 61
74 74 74 74 73 73 63 64 67 72 70 70 69 69 70 69 68 69 69 68 67 68 67 68 69 70 69 68 67 66 65 63 64 65 64 60 67 66 68 69 63 62 61
75 75 75 73 72 73 62 62 65 70 69 68 69 70 69 68 64 63 67 67 67 66 63 61 62 61 61 61 64 64 62 60 62 64 63 63 65 64 66 67 69 63 60
76 76 75 74 70 73 61 59 65 71 67 67 68 68 64 68 60 59 68 66 65 65 66 65 67 63 62 64 60 65 66 63 61 60 64 62 63 63 62 65 64 67 67

GFSMA_sfc_temp_033.txt.gz
Temp
85 86 87 88 87 83 84 83 80 84 86 89 90 90 85 89 89 92 92 80 80 80 81 81 82 82 82 81 81 81 81 81 80 80 80 80 80 80 80 80 80 79 79
84 86 86 86 84 85 87 80 85 81 85 85 86 90 90 91 87 88 92 89 80 81 82 81 81 82 82 82 81 82 81 81 81 80 80 80 80 80 80 80 80 79 79
84 83 86 86 85 87 85 85 82 83 80 81 79 89 90 88 90 88 90 92 89 81 82 82 82 82 82 83 82 81 81 80 81 80 80 80 79 79 79 79 79 79 79
83 84 85 87 88 86 82 84 78 87 87 82 76 87 89 88 82 88 90 91 91 93 84 82 82 81 81 81 80 82 81 80 80 80 80 80 80 79 79 79 79 79 79
84 84 87 87 85 87 82 86 86 85 85 87 87 87 86 84 85 92 89 89 89 90 92 81 81 81 83 83 82 81 81 80 79 79 79 79 79 79 79 78 78 78 78
85 84 87 85 85 86 85 86 83 85 85 84 87 85 85 86 87 90 90 92 90 89 90 88 88 88 81 82 82 82 81 81 80 79 79 79 78 78 78 78 78 78 78
84 83 87 85 84 83 84 83 85 82 84 84 84 84 84 85 85 86 88 91 87 89 88 88 89 86 86 80 80 80 81 81 81 81 80 79 78 78 77 77 77 77 77
84 85 84 85 84 84 82 82 81 83 84 83 82 82 80 82 85 87 80 88 86 89 88 86 85 84 86 87 83 79 79 80 80 79 78 77 76 75 74 73 72 72 75
85 84 84 84 84 84 85 82 81 80 83 81 79 82 78 78 82 85 82 87 85 87 87 86 85 84 84 86 84 81 77 77 79 79 78 77 77 77 77 76 76 75 74
86 85 84 84 83 85 83 83 83 82 80 80 80 82 80 81 80 77 83 84 85 86 85 87 87 85 84 87 80 77 77 77 78 79 79 78 78 78 77 77 76 76 76
85 86 84 83 83 84 83 82 80 78 82 83 82 80 79 81 79 80 78 80 83 85 86 85 88 88 85 86 87 80 77 76 77 78 78 78 78 78 78 78 78 77 77
87 84 85 83 83 84 82 83 81 80 80 81 82 82 82 81 80 80 79 78 81 82 85 85 83 85 87 86 84 78 76 76 75 75 76 76 77 77 78 78 78 78 78
86 84 83 82 84 83 83 82 80 80 79 80 78 82 83 83 84 82 81 80 79 82 83 85 85 84 85 85 86 77 76 74 74 73 73 73 74 75 76 77 77 78 78
87 86 84 84 83 83 83 81 82 82 81 80 78 79 83 83 83 83 83 80 77 79 81 80 86 85 85 84 84 75 83 72 72 71 70 70 71 72 73 74 74 75 75
88 86 85 84 84 83 82 81 83 80 79 80 79 79 81 83 83 83 82 83 81 77 78 81 82 83 85 85 82 83 83 76 70 70 69 69 69 70 70 71 71 71 72
85 85 84 84 84 83 82 80 81 80 78 80 82 78 78 82 82 82 82 82 81 80 77 83 82 83 83 83 82 82 83 75 71 69 68 67 68 69 69 69 69 69 70
83 84 83 83 83 82 82 79 80 80 78 78 79 78 77 79 82 82 82 82 81 80 78 81 83 81 78 80 82 83 83 82 84 69 67 67 66 67 67 68 68 68 68
83 84 83 83 83 83 82 80 79 81 78 78 78 77 77 80 77 78 80 77 80 79 80 75 80 80 77 79 79 79 82 85 81 75 68 67 66 66 66 66 66 66 65
83 84 83 82 82 83 81 80 80 80 79 79 79 78 78 78 76 80 78 79 80 79 78 79 79 81 80 81 79 78 78 79 79 73 68 68 68 67 66 65 64 63 62
82 82 83 83 83 83 82 82 81 80 80 80 80 79 79 78 77 76 76 76 77 78 77 77 78 79 79 79 78 77 78 76 79 75 74 71 69 69 66 64 63 63 61
83 83 82 83 83 83 85 81 81 80 79 79 79 80 80 78 74 75 78 76 76 76 77 77 76 77 77 77 75 80 76 77 75 72 80 81 81 81 80 70 70 67 63
82 82 82 82 82 84 74 70 78 82 80 79 79 79 80 73 71 68 68 70 75 74 74 77 77 76 74 76 78 77 76 71 74 80 76 78 80 78 80 81 70 65 62
82 80 81 82 81 82 67 67 69 83 81 80 80 79 79 80 73 77 67 66 67 67 71 76 74 75 74 76 75 72 73 73 74 75 73 74 79 76 80 81 66 63 61
81 81 80 81 81 82 65 65 68 80 81 81 80 80 79 78 76 76 77 75 75 75 74 79 78 77 77 77 75 75 72 72 74 76 74 70 77 75 78 79 68 64 62
81 81 82 81 80 81 63 63 67 79 81 79 80 80 79 78 71 64 74 76 76 76 67 65 66 64 64 64 70 76 71 72 72 75 75 72 74 73 75 75 77 67 62
81 84 83 82 77 81 62 60 67 83 80 80 79 78 66 76 63 60 72 76 74 76 75 73 73 66 65 66 61 72 75 73 74 72 75 71 73 73 69 76 75 76 76

GFSMA_sfc_temp_036.txt.gz
Temp
93 94 94 97 95 93 94 92 94 93 92 93 95 95 96 94 95 99 94 81 81 82 82 82 82 82 82 81 81 81 81 81 81 81 81 81 81 81 80 80 80 80 80
92 91 94 95 96 97 93 91 92 91 90 94 88 92 96 96 93 94 97 89 82 82 82 82 81 82 82 82 82 82 81 81 81 81 81 81 80 80 80 80 80 80 79
90 88 92 93 95 92 91 92 87 87 93 93 90 88 96 94 96 94 97 97 89 82 83 83 82 82 82 82 82 81 81 81 81 81 80 80 80 79 79 80 80 80 80
89 89 92 96 94 91 93 93 91 91 93 91 87 94 97 95 94 93 95 97 97 96 84 83 82 82 82 82 82 82 81 80 80 80 81 80 80 80 79 79 79 79 79
90 90 93 96 92 91 94 93 92 91 91 93 93 95 93 93 94 97 93 94 93 96 96 82 82 82 83 83 82 82 82 81 80 80 80 79 80 80 79 79 79 79 79
90 90 93 91 91 95 92 93 88 90 91 90 95 92 90 88 95 95 94 96 94 92 93 93 91 88 83 83 82 82 82 82 81 79 79 79 79 79 79 78 78 78 78
90 89 93 90 89 89 90 90 91 86 90 90 90 90 90 92 93 94 98 97 93 96 94 93 95 94 89 81 81 81 81 81 81 81 80 79 78 78 78 77 76 74 77
90 90 89 92 90 91 88 88 87 91 91 91 89 89 81 87 91 94 94 95 92 96 93 92 91 90 93 90 84 79 80 80 80 79 78 77 77 76 75 74 73 73 73
91 89 89 89 90 88 92 88 87 85 88 88 87 87 82 77 87 90 89 94 90 93 92 91 91 89 90 90 85 82 78 79 80 80 79 78 78 78 77 76 76 75 76
92 92 90 90 88 92 90 89 89 88 85 86 88 89 86 85 85 82 89 90 91 91 90 92 91 91 89 92 82 79 78 78 79 80 79 79 78 78 78 77 77 77 77
91 93 91 89 88 89 89 88 86 84 88 89 89 88 85 88 86 85 84 85 89 91 91 91 94 93 90 92 90 81 78 78 78 79 79 79 79 79 79 79 78 78 78
93 90 91 89 89 89 89 88 87 85 85 86 90 88 88 86 86 85 84 85 86 88 91 92 90 92 93 92 89 78 78 77 77 77 77 78 78 78 79 79 79 79 79
94 92 89 88 90 88 89 88 86 86 85 85 83 89 90 90 91 89 88 88 85 89 88 91 92 91 92 92 91 81 77 75 75 74 74 75 75 76 77 77 78 78 78
95 93 90 90 89 90 89 88 89 88 87 86 84 84 90 90 91 90 88 87 83 85 87 84 92 92 91 91 88 77 86 73 73 72 71 72 72 73 74 74 75 75 76
96 93 91 89 90 90 89 87 90 86 87 85 85 84 86 91 91 91 90 89 86 82 84 85 87 90 92 92 88 88 87 76 72 71 70 70 70 71 71 72 72 72 72
91 92 90 90 90 89 88 86 88 87 85 87 88 85 84 91 90 90 90 90 89 86 83 91 88 91 90 92 85 86 88 77 72 70 69 68 68 69 69 70 70 70 70
91 90 89 89 89 89 88 86 87 88 84 84 85 85 82 85 89 90 90 89 88 87 84 88 90 88 83 84 87 87 88 87 88 71 69 68 67 68 69 69 69 69 70
90 89 90 88 89 89 88 86 85 88 85 83 84 83 83 86 82 84 88 84 86 87 85 80 86 86 81 84 84 82 86 91 89 74 70 68 68 68 68 67 68 68 67
89 90 89 88 88 89 88 87 86 86 86 85 85 84 83 83 81 86 84 86 86 85 84 84 84 87 87 86 83 82 83 84 86 74 70 70 68 67 67 66 66 64 63
88 89 89 89 89 89 89 88 87 86 86 86 86 86 85 84 82 81 83 81 84 84 83 83 84 85 84 85 84 84 83 84 84 87 79 73 73 70 68 66 65 65 62
88 89 88 89 90 91 92 88 88 87 86 86 86 86 86 83 77 79 85 82 82 81 85 83 83 84 84 84 81 84 83 84 81 83 82 84 82 85 83 68 74 67 64
87 88 88 88 88 92 79 74 84 89 88 86 85 85 86 77 76 70 70 71 80 80 79 84 84 82 80 82 83 82 82 80 77 79 80 82 85 84 85 87 68 67 64
87 86 87 88 87 88 71 70 72 90 89 87 86 86 86 89 78 82 70 68 69 69 72 81 79 81 81 81 81 78 77 78 77 80 78 79 84 83 86 87 69 66 63
86 86 86 86 87 88 69 67 70 86 88 88 87 86 85 86 84 82 82 79 77 78 78 83 82 82 82 82 80 79 78 75 79 81 80 74 82 81 84 84 70 67 64
86 86 87 86 86 87 66 64 69 85 86 86 88 87 86 85 75 67 81 80 77 77 70 67 67 67 68 69 74 82 78 74 76 76 77 78 79 79 80 81 82 69 66
86 89 88 88 81 86 66 62 69 88 85 88 86 86 70 81 66 63 78 80 77 77 79 78 77 70 69 71 64 76 81 77 76 78 81 78 78 78 74 81 81 81 80

GFSMA_sfc_temp_042.txt.gz
Temp
79 78 78 78 81 79 82 84 83 84 81 85 86 87 88 87 86 84 81 81 81 82 83 83 82 82 82 81 81 81 81 81 81 81 81 80 80 81 81 80 80 80 80
80 84 82 83 82 77 78 84 85 83 83 84 84 87 87 87 84 84 82 80 81 82 82 83 83 82 82 82 82 81 81 81 81 81 81 81 80 81 80 80 80 80 80
87 86 81 81 80 81 83 84 84 80 78 85 84 84 85 86 86 82 84 83 81 82 82 82 82 82 82 82 82 82 81 81 81 81 81 80 80 80 79 79 80 80 80
89 82 74 77 79 85 83 83 79 80 81 81 82 83 82 85 84 86 84 85 82 84 82 82 82 82 82 82 83 82 81 80 80 80 80 80 80 80 80 79 79 79 79
88 85 76 74 76 83 82 84 82 81 80 81 82 82 82 81 84 88 85 84 82 82 81 81 81 81 83 83 82 82 81 80 80 79 80 79 79 79 79 79 79 79 78
88 83 76 75 80 77 83 84 82 83 82 81 89 85 82 81 81 81 85 88 82 83 82 81 79 80 81 83 83 83 82 82 80 80 79 79 79 79 79 78 78 78 77
87 85 81 81 85 80 80 82 81 83 81 83 77 78 80 84 83 82 82 82 83 83 82 83 80 80 80 82 81 82 82 82 81 81 80 79 79 78 77 77 77 76 76
88 87 83 83 82 82 84 84 83 79 81 82 76 73 71 76 80 84 83 85 82 83 84 84 80 79 79 77 78 80 80 80 80 79 79 78 77 77 76 76 75 75 75
87 85 85 82 81 81 80 84 83 83 77 81 81 75 71 70 74 79 81 82 83 79 80 82 82 80 79 76 77 78 79 79 79 79 79 78 77 77 77 76 76 76 76
87 87 85 84 83 82 81 80 84 83 81 77 79 82 80 78 72 71 79 80 81 83 81 80 81 81 79 76 80 78 78 78 79 79 79 79 78 78 78 77 77 77 77
87 89 85 85 84 81 81 82 82 82 82 80 78 78 79 79 78 73 71 75 79 80 81 81 82 80 81 78 74 75 77 77 77 78 78 79 79 79 79 79 79 78 78
86 86 87 84 84 84 83 84 84 82 81 81 81 80 77 75 76 75 72 73 75 77 80 80 80 79 80 79 83 78 77 76 76 77 77 77 78 79 80 80 80 79 79
87 85 85 84 84 83 83 84 83 83 82 81 81 80 80 80 81 78 77 76 75 77 79 81 79 80 83 79 78 78 77 75 75 75 75 76 77 77 78 78 79 79 79
88 86 85 85 84 84 84 84 84 84 82 81 81 79 79 81 82 80 78 76 73 74 76 77 80 79 79 80 77 78 75 73 73 72 73 73 74 75 75 75 75 76 76
91 88 86 85 85 85 84 84 84 82 83 81 80 80 79 79 82 81 80 79 75 71 72 76 76 80 79 78 78 78 77 73 72 72 71 72 72 72 72 73 73 72 73
87 90 85 85 85 85 85 83 84 84 82 82 82 80 79 79 80 81 80 79 78 75 71 76 77 79 81 83 79 79 81 74 72 72 71 70 70 71 71 71 71 71 71
87 86 86 85 85 84 84 83 82 83 82 81 81 80 78 78 79 80 80 79 78 77 73 75 79 78 78 77 77 79 79 77 74 71 70 70 69 70 70 70 70 70 70
86 87 86 85 85 84 84 83 82 84 83 81 80 80 79 82 77 78 79 77 78 78 76 74 77 75 77 77 77 76 79 84 79 73 70 70 69 68 68 68 68 68 68
86 87 86 85 84 85 84 84 83 83 82 82 82 80 80 79 77 78 77 77 78 78 78 75 74 77 76 77 75 76 76 76 80 72 69 69 68 68 67 66 66 66 65
84 86 86 85 85 85 85 85 84 83 82 83 83 82 81 80 78 77 77 75 77 76 75 75 74 74 76 75 76 74 72 74 74 80 77 74 70 68 68 66 66 65 62
86 85 85 86 86 86 88 84 84 84 83 82 83 83 82 81 77 77 79 77 75 75 75 75 73 73 74 74 73 73 72 73 73 74 75 75 73 72 72 67 70 68 66
85 85 85 84 85 89 79 74 82 85 83 82 81 83 83 77 76 73 73 74 76 74 74 75 75 74 73 75 74 73 72 69 67 74 71 72 74 72 75 75 70 71 68
85 84 84 85 84 85 73 72 73 86 84 83 82 82 84 86 77 79 71 71 71 71 74 76 74 75 74 76 76 73 73 71 69 72 71 67 72 70 74 71 67 66 67
84 84 84 84 84 85 72 68 71 84 84 84 83 83 82 82 81 80 78 76 77 76 72 77 78 77 76 77 76 75 73 72 72 72 72 66 71 70 72 68 66 68 65
84 84 85 84 83 84 69 66 68 82 84 82 84 84 83 82 77 69 79 76 75 76 72 68 70 70 71 68 74 74 70 69 67 68 72 69 70 69 69 69 66 65 64
85 87 85 85 80 84 71 64 67 84 82 84 83 83 72 80 69 64 78 78 74 75 76 75 71 67 67 69 67 74 73 70 68 67 72 69 68 69 64 68 68 65 63

GFSMA_sfc_temp_045.txt.gz
Temp
71 76 75 72 72 73 72 77 77 78 79 79 82 81 84 82 79 79 74 81 81 82 82 82 82 82 82 81 81 81 81 81 81 81 81 81 80 80 80 80 80 80 79
73 74 73 74 75 73 73 77 79 80 79 78 79 81 83 82 79 78 78 76 81 81 82 82 82 82 82 81 81 81 81 81 80 80 80 80 80 80 80 80 80 80 79
74 74 75 76 75 74 78 79 78 75 76 78 77 80 82 80 79 79 78 75 77 81 82 82 81 81 82 82 82 81 81 80 80 80 80 80 80 80 79 79 79 79 79
79 74 72 74 74 74 76 76 76 78 75 77 79 77 78 78 78 82 81 79 76 80 81 81 81 81 82 82 82 82 81 80 80 80 80 80 80 79 79 79 79 79 78
80 75 73 72 73 75 78 77 76 76 74 77 79 78 75 79 81 83 79 80 76 79 76 80 80 80 82 82 81 81 81 80 79 79 79 79 79 79 79 78 78 78 77
81 75 74 74 74 74 77 78 76 74 74 77 85 81 74 79 79 77 79 82 77 78 77 77 75 77 80 82 82 82 82 80 80 79 79 79 79 78 78 78 78 77 77
80 75 73 75 74 75 76 77 76 75 74 74 73 74 73 77 75 82 77 79 78 77 78 75 77 75 77 81 81 81 82 82 81 80 79 79 78 78 77 77 76 76 75
80 79 76 75 76 75 75 75 75 73 73 73 70 72 67 71 73 77 77 79 79 77 78 77 76 75 74 73 75 80 80 80 80 80 79 77 77 76 76 75 75 75 75
80 79 78 76 75 75 74 76 76 74 73 72 73 73 67 66 71 72 73 75 75 73 74 76 76 75 74 72 75 77 78 78 79 79 78 77 77 77 77 76 75 75 75
80 80 79 77 77 75 75 75 77 75 73 71 72 76 72 71 66 66 72 73 74 75 74 74 75 76 73 72 75 76 77 77 78 79 79 79 78 77 77 77 76 76 76
79 81 79 78 77 75 75 75 76 74 74 72 70 70 70 71 70 68 64 69 71 73 74 74 74 74 73 72 71 73 77 76 77 77 78 79 79 79 79 78 77 77 77
79 80 80 78 77 76 76 76 76 75 74 73 72 71 71 70 69 69 69 67 73 72 74 73 75 74 73 71 77 77 77 76 75 76 76 77 78 79 80 79 79 79 79
79 79 78 78 77 77 77 77 77 76 74 73 73 72 71 71 72 71 70 72 72 73 72 72 76 74 77 73 73 77 77 74 73 73 73 75 76 77 78 78 79 79 79
81 82 79 81 79 78 77 77 76 76 76 74 74 73 71 71 72 73 72 70 67 67 69 72 73 73 74 75 75 76 74 72 72 71 71 72 73 74 75 75 75 75 76
81 81 82 79 80 79 78 77 76 76 76 75 74 74 71 72 72 73 74 72 70 64 66 71 71 73 73 75 75 75 73 73 72 71 71 71 71 71 72 73 73 72 72
79 79 82 81 80 80 79 77 76 76 75 75 75 73 73 71 72 72 73 73 71 69 66 69 72 72 74 77 76 74 74 73 71 70 70 70 70 70 70 71 71 71 71
79 78 79 80 80 80 79 78 77 76 75 75 75 73 73 72 71 72 72 72 71 70 67 69 71 72 71 71 72 72 74 71 70 70 70 69 69 69 69 69 69 69 70
82 79 80 80 80 80 80 78 77 80 75 74 74 73 73 77 71 71 71 71 72 71 70 68 69 70 71 70 71 71 75 79 72 72 69 69 68 67 67 67 67 67 67
81 82 79 80 80 80 79 79 79 79 77 76 76 75 75 74 73 75 69 71 70 72 70 68 68 69 70 70 69 71 71 71 74 73 68 68 68 67 66 65 65 64 64
82 82 82 80 81 81 81 81 80 79 79 78 77 78 78 75 75 75 71 72 71 69 69 68 68 68 69 70 71 70 67 69 71 76 73 71 69 68 67 65 64 64 62
82 82 83 83 81 82 83 81 81 80 80 79 79 78 79 79 75 75 77 74 73 70 68 71 66 67 68 66 70 68 70 70 68 70 69 70 68 68 69 66 69 67 65
82 82 82 82 82 84 76 73 80 81 81 80 78 79 80 75 75 71 72 74 76 75 74 72 75 72 74 71 70 71 72 64 63 68 68 69 69 67 69 68 68 67 64
82 82 82 82 81 83 71 70 72 83 82 81 80 80 80 82 75 77 70 70 71 71 75 78 74 74 76 76 72 69 73 70 64 66 67 65 68 67 70 72 66 65 63
82 82 82 82 82 83 70 67 70 82 83 82 82 81 80 80 80 78 77 75 75 75 74 77 78 79 74 77 76 77 73 68 67 67 66 63 67 68 68 68 66 65 63
83 83 83 82 82 82 67 66 68 80 82 82 82 82 81 80 75 68 77 75 74 76 72 68 71 71 68 69 72 72 67 66 62 64 67 65 66 67 67 66 64 64 62
84 84 83 83 78 82 68 63 66 81 80 82 83 83 70 78 69 64 76 77 74 75 76 73 70 67 67 71 69 76 68 65 63 63 66 65 64 63 59 65 62 62 62

GFSMA_sfc_temp_048.txt.gz
Temp
70 72 72 72 72 73 72 73 74 75 77 77 77 77 79 78 75 75 73 81 81 82 82 82 82 82 81 81 81 81 81 81 81 80 80 80 80 80 79 79 79 79 79
72 73 73 73 72 72 73 73 75 77 76 75 76 78 79 77 75 74 74 76 81 81 82 82 82 81 81 81 81 81 80 80 80 80 80 80 79 79 79 79 79 79 79
73 73 73 72 72 73 74 74 76 73 74 76 75 79 77 76 75 75 75 74 77 81 81 82 81 81 81 81 81 81 80 80 80 80 79 79 79 79 79 79 79 79 78
75 73 73 72 73 74 73 73 73 73 73 75 73 74 75 75 75 75 75 75 74 77 80 81 81 81 81 82 82 81 80 80 80 80 79 79 79 79 79 79 78 78 78
75 72 72 72 73 73 74 74 74 73 73 77 77 75 73 76 76 79 77 75 74 75 74 79 79 80 82 82 81 81 81 80 79 79 79 79 79 78 78 78 77 77 77
77 73 73 72 72 73 73 74 74 72 72 72 82 77 73 76 74 73 77 78 74 75 74 75 74 75 80 82 82 81 81 80 79 79 78 78 78 78 78 77 77 77 77
77 74 73 73 72 73 73 73 72 72 71 71 71 70 73 75 75 76 74 74 74 75 73 73 73 73 75 80 80 80 81 81 80 80 79 78 78 77 77 76 76 75 75
77 76 73 73 73 73 73 73 73 70 70 70 71 70 65 70 73 73 71 75 73 73 75 75 73 73 73 72 74 80 80 80 80 79 78 77 77 76 76 75 75 75 75
78 77 75 74 74 73 72 73 73 72 69 70 71 68 63 63 65 69 70 71 72 71 72 73 74 73 72 71 75 77 78 77 79 79 78 77 76 76 76 75 75 75 75
77 77 76 75 74 73 73 73 75 72 70 69 70 73 69 68 64 64 69 69 70 72 71 71 72 73 72 70 74 75 77 76 78 79 79 78 77 77 77 77 76 75 75
78 78 77 76 74 73 74 73 73 73 71 69 68 68 68 68 67 65 63 66 69 70 70 71 72 71 71 71 70 72 76 76 76 77 78 78 78 78 78 77 77 77 77
75 76 77 76 75 73 73 74 74 73 72 70 69 69 69 69 67 66 66 66 67 69 70 70 70 70 70 70 75 75 77 75 75 75 76 77 78 79 79 79 79 78 78
72 74 76 76 76 75 74 74 73 73 72 71 71 70 69 70 69 68 68 67 67 68 69 70 70 70 73 68 71 75 77 74 73 73 73 74 75 77 78 79 79 79 79
76 77 78 78 77 77 76 74 73 74 73 71 72 70 69 70 70 69 70 68 64 64 65 69 70 70 72 71 72 76 73 72 72 71 71 71 73 74 75 75 75 76 76
77 78 79 78 78 77 76 74 73 74 74 72 71 72 70 70 70 70 69 70 69 63 64 69 69 71 73 72 73 73 70 72 71 70 70 70 70 71 72 73 73 73 72
76 78 77 79 78 78 77 75 74 74 74 73 73 71 71 70 70 69 69 68 68 67 65 68 69 70 73 75 74 73 73 72 71 70 69 69 69 70 70 70 70 70 71
75 75 78 78 78 78 77 75 75 74 74 74 73 72 72 71 70 69 69 68 67 66 66 68 67 69 68 69 71 70 71 71 70 69 69 68 68 68 69 69 69 68 69
77 75 76 76 77 78 78 77 76 78 74 73 74 73 73 75 70 69 69 69 68 67 67 66 66 67 69 68 70 69 72 77 73 72 69 68 67 67 67 66 66 66 66
79 76 75 76 77 78 78 78 78 77 75 75 75 74 75 73 73 71 67 71 68 69 67 66 67 66 67 66 66 67 68 70 73 73 68 67 67 66 66 64 64 62 62
78 78 77 77 77 78 79 79 79 77 77 77 76 75 76 74 75 73 70 70 69 68 66 65 64 66 66 68 67 70 66 66 69 75 72 70 68 68 66 64 64 63 61
78 80 80 77 78 79 80 79 79 78 78 77 76 76 76 76 74 74 76 74 69 70 65 64 64 64 65 65 68 67 70 73 70 68 68 67 67 68 69 66 68 66 62
79 79 79 80 77 80 74 72 78 79 79 78 77 76 77 74 73 70 70 73 74 72 72 71 72 71 74 73 67 72 71 63 64 67 67 71 69 68 70 69 69 66 63
79 79 79 80 80 80 69 69 71 81 79 78 78 78 78 80 73 76 69 69 70 70 74 77 74 75 74 76 72 68 70 70 69 66 71 70 65 69 70 72 67 64 63
79 79 79 80 79 81 68 66 69 79 81 80 79 79 79 79 78 75 76 73 73 75 73 75 79 79 80 79 77 77 75 73 66 65 65 65 63 65 68 70 66 64 62
80 80 80 80 80 80 66 64 67 76 79 80 81 80 80 79 74 67 75 75 74 75 72 67 70 70 69 68 73 75 66 64 63 63 65 64 63 63 65 67 69 64 61
81 82 81 81 76 80 66 63 66 78 77 79 81 81 70 76 67 63 73 76 74 76 76 76 69 70 67 71 67 77 75 67 66 62 65 64 62 62 61 62 64 65 61

GFSMA_sfc_temp_051.txt.gz
Temp
70 71 71 71 71 72 71 71 73 74 74 75 74 75 78 75 74 73 73 81 81 81 82 82 81 81 81 81 81 81 81 80 80 80 80 80 79 79 79 79 79 79 79
70 71 72 72 72 72 71 72 72 73 75 76 73 75 75 74 73 73 73 75 81 81 81 81 81 81 81 81 81 81 80 80 80 80 80 79 79 79 79 78 79 79 78
72 73 72 72 72 72 73 73 73 72 72 74 73 74 75 74 73 73 73 73 76 81 81 82 81 81 81 81 81 81 80 80 79 79 79 79 79 79 79 78 77 78 78
73 73 72 72 72 72 72 71 71 71 71 71 71 72 72 73 73 73 73 73 73 76 79 80 80 81 81 81 81 81 80 79 79 79 79 79 79 79 78 78 78 77 77
75 73 72 72 72 71 72 72 71 72 72 73 74 71 70 71 72 76 73 73 72 73 73 78 79 79 81 82 80 81 80 79 78 78 78 78 78 78 78 78 77 77 77
75 72 72 72 70 71 72 72 71 70 70 73 80 73 70 71 70 71 73 75 72 73 72 73 73 74 79 81 81 81 80 80 79 79 78 78 78 78 78 77 77 77 77
75 72 72 71 71 72 72 72 70 70 68 69 69 68 70 71 71 70 71 71 73 73 71 72 71 71 73 79 79 80 81 81 80 79 79 78 78 77 77 76 76 76 75
75 74 72 72 72 72 72 72 70 69 68 69 68 65 66 68 69 70 69 72 71 72 73 73 71 72 71 71 73 79 79 80 80 79 78 77 77 76 75 75 75 75 75
76 75 73 73 72 72 71 71 71 70 68 68 73 67 62 62 63 67 68 70 70 69 70 72 72 72 71 70 73 76 78 77 79 78 77 77 76 76 76 75 75 75 75
76 76 75 74 73 72 72 72 72 71 69 68 68 70 66 66 64 64 67 68 69 70 69 69 71 72 71 70 74 75 77 76 77 78 79 78 77 77 77 76 75 75 75
75 77 75 74 73 72 73 72 71 71 69 68 68 67 66 66 64 63 62 66 68 68 68 69 70 70 71 70 69 72 76 75 76 77 78 78 78 78 78 77 77 76 76
75 75 76 74 73 73 73 72 73 71 70 68 68 67 68 67 65 64 62 62 64 68 69 69 69 69 69 69 73 75 76 75 75 75 76 77 78 78 79 79 78 78 78
70 73 74 73 73 73 73 72 72 72 71 69 68 68 67 68 67 66 66 63 64 66 66 67 68 68 71 68 70 75 76 74 73 72 73 74 75 76 78 79 79 79 79
75 76 75 75 75 74 74 72 72 72 71 71 70 68 68 68 67 67 68 65 62 62 63 68 67 70 70 69 71 75 71 72 72 71 71 71 72 73 75 75 76 76 76
75 74 76 75 74 74 74 73 72 72 72 71 70 70 68 68 67 68 67 67 67 62 63 67 68 69 72 70 72 71 70 72 71 70 70 70 70 71 72 73 73 73 73
73 74 74 75 74 74 75 73 73 73 72 71 71 70 69 68 68 67 67 66 65 66 64 66 68 68 71 74 73 72 72 72 71 70 69 68 69 70 70 71 71 70 71
73 73 73 74 74 75 75 74 73 73 73 72 72 71 70 70 69 67 66 66 65 64 63 66 65 66 66 68 71 72 72 69 70 69 69 68 68 68 69 69 69 69 69
71 73 73 74 75 76 75 75 74 75 73 72 73 72 72 73 69 68 67 66 65 64 64 64 65 66 66 66 70 69 71 73 72 72 68 68 67 67 67 66 66 66 66
73 73 73 74 75 75 75 75 76 75 74 75 74 73 74 72 71 70 68 67 66 67 64 64 66 65 65 64 64 65 66 68 71 73 68 67 67 67 66 65 64 63 62
75 74 75 76 76 76 76 76 76 76 75 75 75 74 75 73 73 73 70 69 68 65 63 63 63 66 65 66 64 64 63 64 70 74 73 71 69 67 66 64 64 64 61
77 77 76 75 76 77 78 76 76 76 75 75 75 75 75 76 74 74 75 74 70 69 68 65 65 62 63 63 63 65 71 72 69 69 70 68 67 66 68 65 68 67 63
76 77 76 77 75 78 72 70 76 77 77 76 75 74 76 73 72 70 70 72 74 72 71 69 72 71 72 69 75 73 69 61 65 66 69 72 69 68 68 68 68 66 63
76 75 76 77 76 77 68 68 70 79 77 77 77 77 76 78 73 75 69 68 69 68 73 76 72 74 73 77 75 69 73 71 72 67 71 70 64 70 67 67 67 65 63
75 75 76 76 76 78 67 66 68 77 79 78 78 78 78 78 77 75 75 74 71 73 71 73 77 78 78 79 76 77 74 73 69 64 66 69 64 68 65 66 66 65 63
76 76 77 76 77 77 65 64 66 75 77 78 79 79 78 78 73 66 74 74 74 74 70 66 68 70 69 68 73 76 73 67 65 65 65 73 63 64 64 65 65 64 62
78 79 78 78 74 78 66 62 65 77 75 76 78 79 69 75 66 63 72 74 73 75 76 75 72 68 66 71 66 69 71 66 65 65 66 65 62 63 61 63 63 64 63

GFSMA_sfc_temp_057.txt.gz
Temp
84 86 84 86 85 88 88 87 88 88 86 85 88 87 87 87 87 90 90 81 81 82 82 82 81 81 81 81 81 81 80 80 80 80 80 80 79 79 79 79 79 79 79
84 86 85 86 86 88 89 89 87 87 87 88 86 87 87 87 86 86 89 87 81 81 82 82 81 81 81 81 81 81 80 80 80 80 80 79 79 79 79 79 79 79 79
82 83 86 86 87 86 85 87 86 86 87 88 85 86 87 86 87 86 89 89 87 80 81 82 81 81 81 81 81 80 80 80 79 79 79 79 79 79 79 79 79 79 78
83 83 85 86 86 87 88 83 81 87 87 88 86 87 87 88 86 86 88 88 89 92 83 80 80 81 81 81 81 81 80 80 79 79 79 79 79 79 79 79 78 78 78
84 85 86 86 85 87 88 88 87 87 86 87 87 86 87 87 87 90 87 87 88 89 90 81 80 80 81 82 81 81 80 80 80 79 79 79 79 79 79 79 78 78 78
85 84 86 85 86 84 83 86 83 85 85 79 89 86 87 88 88 88 89 90 88 88 89 86 87 88 80 80 80 80 81 81 80 80 79 79 79 79 78 78 77 77 77
85 83 86 84 82 84 84 83 84 82 84 80 77 84 84 87 87 89 90 91 88 89 89 89 89 89 89 79 79 80 81 81 81 80 79 79 78 78 77 77 76 76 76
85 84 83 84 82 85 82 83 83 84 84 84 84 84 80 83 87 89 88 88 87 90 89 87 88 86 86 88 85 79 80 80 80 80 79 78 77 77 76 76 75 76 76
86 84 83 84 83 82 82 83 84 83 84 84 82 85 79 80 84 86 85 87 86 87 88 87 87 87 85 87 83 83 79 77 79 79 78 77 76 76 76 76 76 76 76
86 86 84 84 83 83 82 84 85 85 84 83 83 85 83 84 83 81 86 88 86 87 88 89 90 88 86 88 83 79 77 77 78 79 78 78 77 77 77 77 76 76 76
85 86 85 84 83 84 82 84 83 82 84 85 86 84 83 85 82 85 83 85 86 88 89 88 90 90 88 88 88 83 77 76 76 77 79 79 78 78 78 78 77 77 77
86 84 85 84 84 84 83 84 84 83 83 83 85 85 86 85 85 84 83 83 84 88 89 89 88 89 90 90 87 79 76 76 75 76 76 77 78 79 79 79 79 78 78
86 84 84 83 85 84 85 84 83 83 82 83 81 86 86 87 87 87 85 85 84 87 87 89 90 89 90 89 90 80 77 74 73 73 73 74 75 76 78 79 79 79 79
87 87 85 86 85 85 85 84 85 86 84 84 82 82 87 86 86 86 86 84 82 84 86 84 90 90 89 90 88 77 86 73 72 71 71 72 73 74 75 76 76 77 77
87 86 86 85 86 85 85 84 86 84 84 84 84 83 84 88 86 87 86 86 84 80 83 89 88 88 89 89 86 87 86 78 71 71 70 70 71 71 72 73 73 73 74
83 85 85 86 86 85 85 84 85 85 83 85 86 83 83 87 86 86 86 85 84 83 80 88 89 88 89 90 87 84 86 77 72 70 70 69 70 70 71 71 71 71 72
83 83 84 84 85 85 85 83 83 85 83 83 84 83 82 83 86 87 86 85 84 83 81 87 86 87 83 84 88 86 86 85 87 70 69 69 68 69 70 70 70 70 70
83 83 84 84 84 85 85 83 83 86 83 83 84 83 83 86 82 83 85 82 83 83 82 78 84 86 83 86 85 84 86 91 89 80 69 68 68 67 68 68 68 68 67
83 84 83 83 84 85 84 84 84 84 84 84 85 84 84 84 82 85 84 85 86 83 82 80 82 87 85 86 85 83 82 85 88 78 69 67 67 67 66 65 65 64 64
82 83 83 83 84 85 85 85 84 84 84 85 85 86 85 85 83 83 84 83 83 83 84 82 82 84 86 86 84 82 84 88 87 90 83 78 74 69 67 65 65 65 62
83 83 83 83 84 85 88 85 85 85 84 84 85 85 86 83 77 79 86 85 84 83 84 84 83 84 85 85 82 86 85 86 86 88 86 88 88 85 81 67 72 68 65
82 82 82 82 83 86 76 71 80 86 85 84 83 85 85 78 77 70 70 71 80 82 80 83 85 84 82 83 86 85 85 83 82 91 86 82 86 85 78 83 72 68 64
81 80 81 82 82 83 69 68 70 86 86 85 84 84 86 89 79 84 73 68 68 68 71 81 81 82 82 84 83 81 81 81 81 86 84 81 86 83 82 77 68 66 65
81 81 81 82 82 83 68 66 68 81 84 85 85 85 84 85 86 84 85 85 85 85 81 81 81 82 84 85 84 84 82 80 80 84 83 76 84 84 79 75 68 66 64
80 81 82 81 81 82 65 64 67 82 83 83 85 86 85 84 76 67 81 82 84 85 79 68 69 68 66 66 71 80 75 72 70 76 84 78 79 80 76 80 76 65 63
82 84 82 82 77 82 66 62 66 83 82 83 84 83 70 78 68 63 79 81 81 83 85 86 86 75 68 75 66 73 76 70 70 70 79 71 75 71 68 73 76 73 70

GFSMA_sfc_temp_060.txt.gz
Temp
91 93 91 94 95 95 95 94 94 94 92 94 95 94 94 93 94 97 93 82 82 83 82 82 82 81 81 81 81 81 81 81 81 81 81 80 80 80 79 79 79 79 79
91 92 91 93 94 97 96 95 93 94 94 95 92 93 94 94 92 94 95 89 82 82 82 82 82 81 82 81 81 81 81 81 81 80 80 80 80 79 79 80 79 79 79
88 91 92 93 94 93 91 92 93 93 95 96 92 93 94 92 92 91 96 92 85 81 82 82 82 82 82 82 81 81 81 80 80 80 80 80 80 79 80 79 79 79 79
88 87 89 94 93 93 95 94 81 94 95 95 93 94 94 94 91 91 94 95 96 87 83 81 81 81 81 82 82 81 81 81 80 80 80 80 80 80 79 79 79 79 78
90 89 92 93 87 92 94 94 94 94 92 93 94 94 94 94 93 95 92 93 92 95 96 82 81 81 81 82 82 82 81 81 80 80 80 80 79 79 79 79 79 78 78
90 90 93 88 90 92 93 95 90 94 91 92 94 93 94 94 94 95 94 96 93 93 95 92 91 89 81 81 81 81 81 81 81 80 80 79 79 79 79 78 78 77 77
90 89 94 88 87 91 92 90 90 88 83 78 81 90 91 93 92 95 98 99 93 95 95 95 93 96 90 81 80 80 81 81 81 81 80 79 79 78 78 77 77 77 77
90 91 90 91 88 90 88 88 88 90 92 90 79 89 83 88 94 97 96 97 95 98 96 93 94 91 92 95 87 80 80 80 81 80 79 79 78 77 77 76 76 77 77
91 90 89 90 86 89 90 87 88 88 89 90 88 83 85 81 88 93 91 94 93 95 97 94 94 93 91 94 87 85 80 79 79 80 79 78 77 77 77 77 77 77 76
92 91 90 89 88 91 89 89 91 91 89 88 90 92 89 88 88 85 92 93 94 93 93 95 96 94 92 93 86 80 79 78 78 79 79 79 78 78 78 77 77 76 77
91 93 90 89 87 91 89 88 86 87 91 93 92 90 89 92 90 89 87 89 93 95 96 95 98 98 94 94 95 86 78 77 77 78 79 79 79 79 79 78 77 77 77
93 90 91 89 89 88 88 89 88 87 89 90 92 92 92 90 90 90 89 88 89 94 97 97 96 96 97 96 92 79 78 77 76 76 77 77 78 79 80 79 79 78 78
94 91 89 88 90 88 89 88 86 87 87 88 86 92 93 93 94 93 90 91 89 95 94 97 97 97 98 97 96 83 77 75 74 73 74 75 76 77 78 79 80 80 79
94 93 90 91 90 91 90 89 91 91 90 88 87 87 93 93 94 93 91 89 87 91 93 88 98 98 97 97 93 79 90 73 73 72 72 72 73 74 75 76 77 77 78
95 93 92 90 91 91 90 88 91 89 89 88 88 88 89 94 94 94 94 92 88 84 88 93 93 95 97 98 93 94 92 79 72 71 70 70 71 72 73 74 74 74 74
90 92 90 90 90 90 90 88 91 90 88 91 92 89 88 94 93 93 93 93 92 88 85 95 96 97 95 96 94 92 92 80 73 71 70 69 70 71 71 72 72 72 72
90 88 89 89 90 90 90 88 88 90 88 88 89 88 87 88 92 94 94 93 92 91 87 92 96 97 90 88 91 94 93 92 94 72 70 69 68 69 70 70 70 71 72
89 88 89 88 89 90 90 88 88 91 88 88 88 88 88 91 86 87 92 88 91 91 89 83 89 92 90 92 90 87 91 97 97 85 71 70 68 68 68 68 68 69 68
87 90 89 88 88 90 89 89 89 89 89 89 89 89 89 89 86 90 90 91 92 90 89 87 87 93 94 95 92 90 89 90 93 83 71 69 67 67 67 66 66 65 65
87 88 89 89 89 90 90 90 90 89 89 90 90 90 90 89 88 88 88 87 88 88 90 89 90 91 93 93 94 92 90 94 95 99 89 81 78 72 67 65 65 65 63
88 88 88 89 89 91 94 90 90 90 89 89 90 91 91 88 80 82 91 89 89 89 90 90 91 92 93 93 91 95 92 93 93 96 95 96 96 95 92 68 72 67 65
87 87 88 88 88 93 79 73 83 90 90 88 88 90 90 82 80 72 71 71 77 85 85 88 90 88 86 89 92 92 92 90 87 96 92 92 95 94 95 95 79 69 65
87 86 87 88 88 89 72 70 72 90 91 90 89 89 91 96 84 91 75 69 70 68 70 82 83 85 85 88 88 86 86 87 86 91 82 86 92 87 92 95 72 66 64
86 86 86 87 87 89 69 67 69 86 88 89 90 90 89 90 90 90 91 90 90 90 85 84 83 84 85 87 87 85 84 83 85 87 85 79 89 88 92 93 74 67 64
86 86 87 86 86 87 67 65 69 86 87 87 89 90 90 89 79 69 87 86 87 89 84 70 71 71 69 68 73 84 78 79 78 83 87 84 87 82 83 86 88 70 64
87 90 89 88 81 87 68 63 69 88 88 89 88 88 73 81 70 65 84 85 84 86 89 90 90 78 68 75 66 77 83 79 79 75 86 76 78 78 74 81 79 78 75